| time (UTC) | temp C | wind direction | speed KPH | gust KPH | rain 1hr cm | rain 24hr cm | rain mn cm | humidity % | barometer mb |
| 20260506103034 | 16 | 242 | 0.0 | 0.0 | 0.00 | 0.00 | 0.00 | 67 | 1003.3 |
| 20260506102034 | 16 | 262 | 0.0 | 1.6 | 0.00 | 0.00 | 0.00 | 70 | 1003.7 |
| 20260506101033 | 16 | 249 | 0.0 | 1.6 | 0.00 | 0.00 | 0.00 | 70 | 1003.5 |
| 20260506100033 | 16 | 264 | 0.0 | 0.0 | 0.00 | 0.00 | 0.00 | 71 | 1003.1 |
| 20260506095033 | 16 | 186 | 0.0 | 0.0 | 0.00 | 0.00 | 0.00 | 74 | 1003.6 |
| 20260506094033 | 15 | 264 | 0.0 | 3.2 | 0.00 | 0.00 | 0.00 | 73 | 1003.6 |
| 20260506093034 | 15 | 263 | 0.0 | 1.6 | 0.00 | 0.00 | 0.00 | 79 | 1003.5 |
| 20260506092034 | 15 | 263 | 0.0 | 0.0 | 0.00 | 0.00 | 0.00 | 79 | 1003.6 |
| 20260506091033 | 14 | 238 | 0.0 | 0.0 | 0.00 | 0.00 | 0.00 | 79 | 1003.5 |
| 20260506090034 | 14 | 245 | 0.0 | 0.0 | 0.00 | 0.00 | 0.00 | 78 | 1003.6 |
| 20260506085034 | 15 | 236 | 0.0 | 0.0 | 0.00 | 0.00 | 0.00 | 79 | 1003.8 |
| 20260506084034 | 14 | 176 | 0.0 | 0.0 | 0.00 | 0.00 | 0.00 | 82 | 1003.5 |
| 20260506083033 | 14 | 126 | 0.0 | 1.6 | 0.00 | 0.00 | 0.00 | 81 | 1003.5 |
| 20260506082033 | 13 | 285 | 0.0 | 0.0 | 0.00 | 0.00 | 0.00 | 86 | 1003.7 |
| 20260506081033 | 13 | 286 | 0.0 | 1.6 | 0.00 | 0.00 | 0.00 | 85 | 1003.9 |
| 20260506073034 | 13 | 286 | 0.0 | 0.0 | 0.00 | 0.00 | 0.00 | 84 | 1003.8 |
| 20260506072034 | 13 | 285 | 0.0 | 0.0 | 0.00 | 0.00 | 0.00 | 84 | 1003.9 |
| 20260506071033 | 13 | 289 | 0.0 | 0.0 | 0.00 | 0.00 | 0.00 | 82 | 1003.8 |
| 20260506062034 | 8 | 181 | 0.0 | 0.0 | 0.00 | 0.00 | 0.00 | 98 | 1003.7 |
| 20260506061033 | 8 | 179 | 0.0 | 0.0 | 0.00 | 0.00 | 0.00 | 99 | 1003.8 |
| 20260506051034 | 6 | 112 | 0.0 | 0.0 | 0.00 | 0.00 | 0.00 | 99 | 1003.9 |
| 20260506045034 | 6 | 112 | 0.0 | 0.0 | 0.00 | 0.00 | 0.00 | 99 | 1004.2 |
| 20260506044033 | 6 | 112 | 0.0 | 0.0 | 0.00 | 0.00 | 0.00 | 99 | 1004.2 |
| 20260506043033 | 6 | 112 | 0.0 | 0.0 | 0.00 | 0.00 | 0.00 | 99 | 1004.2 |
| 20260506042034 | 6 | 112 | 0.0 | 0.0 | 0.00 | 0.00 | 0.00 | 99 | 1004.1 |
| 20260506041033 | 6 | 113 | 0.0 | 0.0 | 0.00 | 0.00 | 0.00 | 99 | 1004.4 |
| 20260506040033 | 5 | 113 | 0.0 | 0.0 | 0.00 | 0.00 | 0.00 | 99 | 1004.3 |
| 20260506035033 | 5 | 113 | 0.0 | 0.0 | 0.00 | 0.00 | 0.00 | 99 | 1004.3 |
| 20260506034033 | 5 | 113 | 0.0 | 0.0 | 0.00 | 0.00 | 0.00 | 99 | 1004.1 |
| 20260506033033 | 5 | 113 | 0.0 | 0.0 | 0.00 | 0.00 | 0.00 | 99 | 1004.4 |
| 20260506032034 | 5 | 112 | 0.0 | 0.0 | 0.00 | 0.00 | 0.00 | 99 | 1004.4 |
| 20260506031033 | 5 | 112 | 0.0 | 0.0 | 0.00 | 0.00 | 0.00 | 98 | 1004.7 |
| 20260506030033 | 5 | 112 | 0.0 | 0.0 | 0.00 | 0.00 | 0.00 | 99 | 1004.5 |
| 20260506025033 | 5 | 112 | 0.0 | 0.0 | 0.00 | 0.00 | 0.00 | 98 | 1004.6 |
| 20260506024033 | 5 | 112 | 0.0 | 0.0 | 0.00 | 0.00 | 0.00 | 98 | 1004.6 |
| 20260506023033 | 6 | 112 | 0.0 | 0.0 | 0.00 | 0.00 | 0.00 | 98 | 1004.4 |
| 20260506022033 | 6 | 113 | 0.0 | 0.0 | 0.00 | 0.00 | 0.00 | 98 | 1004.4 |
| 20260506021034 | 5 | 113 | 0.0 | 0.0 | 0.00 | 0.00 | 0.00 | 98 | 1004.7 |
| 20260506020033 | 6 | 113 | 0.0 | 0.0 | 0.00 | 0.00 | 0.00 | 98 | 1004.6 |
| 20260506015034 | 6 | 112 | 0.0 | 1.6 | 0.00 | 0.00 | 0.00 | 98 | 1004.9 |
| 20260506014034 | 6 | 113 | 0.0 | 0.0 | 0.00 | 0.00 | 0.00 | 98 | 1005.0 |
| 20260506013034 | 5 | 113 | 0.0 | 0.0 | 0.00 | 0.00 | 0.00 | 98 | 1005.1 |
| 20260506012033 | 6 | 113 | 0.0 | 0.0 | 0.00 | 0.00 | 0.00 | 97 | 1004.9 |
| 20260506011033 | 6 | 113 | 0.0 | 0.0 | 0.00 | 0.00 | 0.00 | 97 | 1004.5 |
| 20260506010033 | 6 | 113 | 0.0 | 0.0 | 0.00 | 0.00 | 0.00 | 97 | 1004.5 |
| 20260506005033 | 6 | 112 | 0.0 | 0.0 | 0.00 | 0.00 | 0.00 | 97 | 1004.7 |
| 20260506004033 | 6 | 112 | 0.0 | 0.0 | 0.00 | 0.00 | 0.00 | 97 | 1004.6 |
| 20260506003033 | 7 | 112 | 0.0 | 0.0 | 0.00 | 0.00 | 0.00 | 97 | 1004.8 |
| 20260506002034 | 7 | 112 | 0.0 | 0.0 | 0.00 | 0.00 | 0.00 | 97 | 1004.9 |
| 20260506001034 | 7 | 113 | 0.0 | 0.0 | 0.00 | 0.00 | 0.00 | 96 | 1004.9 |
| 20260506000033 | 7 | 113 | 0.0 | 0.0 | 0.00 | 0.00 | 0.00 | 96 | 1005.1 |
| 20260505235033 | 8 | 113 | 0.0 | 0.0 | 0.00 | 0.00 | 0.00 | 96 | 1005.5 |
| 20260505234033 | 8 | 138 | 0.0 | 0.0 | 0.00 | 0.00 | 0.00 | 96 | 1005.5 |
| 20260505233033 | 8 | 139 | 0.0 | 0.0 | 0.00 | 0.00 | 0.00 | 96 | 1005.4 |
| 20260505232034 | 8 | 164 | 0.0 | 0.0 | 0.00 | 0.00 | 0.00 | 96 | 1005.6 |
| 20260505231034 | 8 | 141 | 0.0 | 0.0 | 0.00 | 0.00 | 0.00 | 96 | 1005.5 |
| 20260505230033 | 9 | 153 | 0.0 | 0.0 | 0.00 | 0.00 | 0.00 | 96 | 1005.7 |
| 20260505225033 | 8 | 140 | 0.0 | 0.0 | 0.00 | 0.00 | 0.00 | 96 | 1005.6 |
| 20260505224033 | 8 | 130 | 0.0 | 0.0 | 0.00 | 0.00 | 0.00 | 96 | 1005.7 |
| 20260505223033 | 8 | 110 | 0.0 | 0.0 | 0.00 | 0.00 | 0.00 | 96 | 1005.5 |
| 20260505222034 | 8 | 110 | 0.0 | 0.0 | 0.00 | 0.00 | 0.00 | 95 | 1005.7 |
| 20260505221034 | 8 | 110 | 0.0 | 0.0 | 0.00 | 0.00 | 0.00 | 95 | 1005.7 |
| 20260505220033 | 8 | 110 | 0.0 | 0.0 | 0.00 | 0.00 | 0.00 | 95 | 1005.5 |
| 20260505215033 | 8 | 112 | 0.0 | 0.0 | 0.00 | 0.00 | 0.18 | 95 | 1005.5 |
| 20260505214033 | 9 | 112 | 0.0 | 1.6 | 0.00 | 0.00 | 0.18 | 95 | 1005.4 |
| 20260505213033 | 10 | 129 | 0.0 | 0.0 | 0.00 | 0.00 | 0.18 | 95 | 1005.5 |
| 20260505212034 | 10 | 114 | 0.0 | 0.0 | 0.00 | 0.00 | 0.18 | 95 | 1005.5 |
| 20260505211033 | 10 | 113 | 0.0 | 0.0 | 0.00 | 0.00 | 0.18 | 95 | 1005.5 |
| 20260505210033 | 10 | 125 | 0.0 | 0.0 | 0.00 | 0.00 | 0.18 | 95 | 1005.6 |
| 20260505205033 | 10 | 108 | 0.0 | 0.0 | 0.00 | 0.00 | 0.18 | 95 | 1005.5 |
| 20260505204034 | 10 | 127 | 0.0 | 0.0 | 0.00 | 0.00 | 0.18 | 95 | 1005.5 |
| 20260505203034 | 10 | 127 | 0.0 | 0.0 | 0.00 | 0.00 | 0.18 | 95 | 1005.4 |
| 20260505202033 | 10 | 127 | 0.0 | 0.0 | 0.00 | 0.00 | 0.18 | 95 | 1005.4 |
| 20260505201033 | 10 | 127 | 0.0 | 0.0 | 0.00 | 0.00 | 0.18 | 94 | 1005.1 |
| 20260505200033 | 10 | 127 | 0.0 | 0.0 | 0.00 | 0.00 | 0.18 | 94 | 1005.0 |
| 20260505195033 | 11 | 126 | 0.0 | 0.0 | 0.00 | 0.00 | 0.18 | 94 | 1004.9 |
| 20260505194034 | 11 | 126 | 0.0 | 0.0 | 0.00 | 0.00 | 0.18 | 93 | 1005.0 |
| 20260505193034 | 11 | 126 | 0.0 | 0.0 | 0.00 | 0.00 | 0.18 | 93 | 1004.9 |
| 20260505192034 | 11 | 127 | 0.0 | 0.0 | 0.00 | 0.00 | 0.18 | 92 | 1004.8 |
| 20260505191033 | 11 | 104 | 0.0 | 0.0 | 0.00 | 0.00 | 0.18 | 91 | 1004.8 |
| 20260505190034 | 12 | 150 | 0.0 | 0.0 | 0.00 | 0.00 | 0.18 | 90 | 1004.7 |
| 20260505185033 | 12 | 261 | 0.0 | 0.0 | 0.00 | 0.00 | 0.18 | 89 | 1004.7 |
| 20260505184033 | 12 | 153 | 0.0 | 0.0 | 0.00 | 0.00 | 0.18 | 88 | 1004.6 |
| 20260505183033 | 12 | 159 | 0.0 | 1.6 | 0.00 | 0.00 | 0.18 | 87 | 1004.5 |
| 20260505180037 | 12 | 113 | 0.0 | 0.0 | 0.00 | 0.00 | 0.18 | 89 | 1004.4 |
| 20260505175034 | 12 | 112 | 0.0 | 0.0 | 0.00 | 0.00 | 0.18 | 88 | 1004.1 |
| 20260505174033 | 13 | 112 | 0.0 | 0.0 | 0.00 | 0.00 | 0.18 | 88 | 1004.1 |
| 20260505173033 | 13 | 112 | 0.0 | 0.0 | 0.00 | 0.00 | 0.18 | 88 | 1004.4 |
| 20260505172033 | 13 | 109 | 1.6 | 3.2 | 0.00 | 0.00 | 0.18 | 86 | 1004.3 |
| 20260505171033 | 14 | 119 | 0.0 | 0.0 | 0.00 | 0.00 | 0.18 | 86 | 1004.2 |
| 20260505170033 | 14 | 113 | 0.0 | 0.0 | 0.00 | 0.00 | 0.18 | 84 | 1004.3 |
| 20260505165034 | 14 | 117 | 0.0 | 0.0 | 0.00 | 0.00 | 0.18 | 86 | 1004.1 |
| 20260505164034 | 13 | 116 | 0.0 | 0.0 | 0.00 | 0.00 | 0.18 | 89 | 1004.4 |
| 20260505163033 | 13 | 147 | 0.0 | 3.2 | 0.00 | 0.00 | 0.18 | 86 | 1004.3 |
| 20260505162033 | 13 | 227 | 0.0 | 1.6 | 0.00 | 0.00 | 0.18 | 86 | 1004.2 |
| 20260505161033 | 13 | 151 | 0.0 | 3.2 | 0.00 | 0.00 | 0.18 | 86 | 1004.4 |
| 20260505153033 | 13 | 128 | 0.0 | 0.0 | 0.00 | 0.00 | 0.18 | 90 | 1004.7 |
| 20260505152033 | 12 | 145 | 0.0 | 3.2 | 0.00 | 0.00 | 0.18 | 89 | 1004.7 |
| 20260505151033 | 12 | 128 | 0.0 | 1.6 | 0.00 | 0.00 | 0.18 | 90 | 1004.6 |
| 20260505125033 | 19 | 105 | 0.0 | 0.0 | 0.00 | 0.00 | 0.00 | 62 | 1004.5 |
| 20260505124033 | 18 | 156 | 0.0 | 0.0 | 0.00 | 0.00 | 0.00 | 62 | 1004.5 |
| 20260505123034 | 18 | 119 | 0.0 | 3.2 | 0.00 | 0.00 | 0.00 | 60 | 1004.6 |
| 20260505122033 | 18 | 165 | 0.0 | 0.0 | 0.00 | 0.00 | 0.00 | 62 | 1004.4 |
| 20260505121033 | 19 | 109 | 0.0 | 0.0 | 0.00 | 0.00 | 0.00 | 62 | 1004.7 |
| 20260505120033 | 19 | 151 | 0.0 | 1.6 | 0.00 | 0.00 | 0.00 | 58 | 1004.5 |
| 20260505115033 | 20 | 107 | 0.0 | 1.6 | 0.00 | 0.00 | 0.00 | 55 | 1004.5 |
| 20260505114033 | 20 | 135 | 0.0 | 1.6 | 0.00 | 0.00 | 0.00 | 55 | 1004.4 |
| 20260505113033 | 20 | 143 | 0.0 | 0.0 | 0.00 | 0.00 | 0.00 | 55 | 1004.4 |
| 20260505112034 | 20 | 146 | 0.0 | 0.0 | 0.00 | 0.00 | 0.00 | 55 | 1004.3 |
| 20260505111034 | 20 | 149 | 0.0 | 0.0 | 0.00 | 0.00 | 0.00 | 54 | 1004.5 |